TimeAST,TemperatureF,Dew PointF,Humidity,Sea Level PressureIn,VisibilityMPH,Wind Direction,Wind SpeedMPH,Gust SpeedMPH,PrecipitationIn,Events,Conditions,WindDirDegrees,DateUTC
12:00 AM,78.8,69.8,74,29.92,6.2,East,13.8,-,N/A,,Partly Cloudy,80,2012-12-06 04:00:00
1:00 AM,78.8,68.0,69,29.92,6.2,East,12.7,-,N/A,,Partly Cloudy,80,2012-12-06 05:00:00
2:00 AM,78,68,65,29.90,28,East,12.7,,,,Scattered Clouds,90,2012-12-06 06:00:00
2:00 AM,78.8,68.0,69,29.89,6.2,East,10.4,-,N/A,,Partly Cloudy,80,2012-12-06 06:00:00
3:00 AM,78.8,68.0,69,29.86,6.2,ENE,11.5,-,N/A,,Partly Cloudy,70,2012-12-06 07:00:00
4:00 AM,78.8,68.0,69,29.86,6.2,ENE,9.2,-,N/A,,Partly Cloudy,70,2012-12-06 08:00:00
5:00 AM,79,69,65,29.88,19,East,11.5,,,,Mostly Cloudy,80,2012-12-06 09:00:00
5:00 AM,78.8,69.8,74,29.86,6.2,ENE,12.7,-,N/A,Rain,Light Rain Showers,70,2012-12-06 09:00:00
6:00 AM,78.8,68.0,69,29.89,6.2,ENE,9.2,-,N/A,,Scattered Clouds,60,2012-12-06 10:00:00
7:00 AM,78.8,68.0,69,29.92,6.2,ENE,11.5,-,N/A,,Partly Cloudy,70,2012-12-06 11:00:00
8:00 AM,81,69,58,29.94,28,ENE,13.8,,,,Partly Cloudy,60,2012-12-06 12:00:00
8:00 AM,80.6,68.0,65,29.92,6.2,ENE,13.8,-,N/A,,Scattered Clouds,60,2012-12-06 12:00:00
9:00 AM,82.4,69.8,66,29.95,6.2,ENE,12.7,-,N/A,,Scattered Clouds,70,2012-12-06 13:00:00
10:00 AM,84.2,69.8,62,29.95,6.2,ENE,12.7,-,N/A,,Partly Cloudy,70,2012-12-06 14:00:00
11:00 AM,84,68,50,29.95,31,East,13.8,,,,Scattered Clouds,90,2012-12-06 15:00:00
11:00 AM,84.2,68.0,58,29.95,6.2,East,13.8,-,N/A,,Partly Cloudy,80,2012-12-06 15:00:00
12:00 PM,84.2,68.0,58,29.92,6.2,East,11.5,-,N/A,,Partly Cloudy,90,2012-12-06 16:00:00
1:00 PM,84.2,66.2,55,29.89,6.2,East,11.5,-,N/A,,Partly Cloudy,90,2012-12-06 17:00:00
2:00 PM,84,67,46,29.88,37,ESE,13.8,,,,Scattered Clouds,110,2012-12-06 18:00:00
2:00 PM,84.2,66.2,55,29.86,6.2,ESE,13.8,-,N/A,,Partly Cloudy,110,2012-12-06 18:00:00
3:00 PM,82.4,66.2,58,29.86,6.2,ESE,10.4,-,N/A,,Partly Cloudy,110,2012-12-06 19:00:00
4:00 PM,82.4,68.0,62,29.86,6.2,East,13.8,-,N/A,,Partly Cloudy,90,2012-12-06 20:00:00
5:00 PM,80,68,58,29.88,37,East,15.0,,,,Scattered Clouds,90,2012-12-06 21:00:00
5:00 PM,80.6,68.0,65,29.86,6.2,East,15.0,-,N/A,,Partly Cloudy,90,2012-12-06 21:00:00
6:00 PM,78.8,68.0,69,29.89,6.2,East,11.5,-,N/A,,Partly Cloudy,80,2012-12-06 22:00:00
7:00 PM,78.8,66.2,65,29.92,6.2,East,12.7,-,N/A,,Scattered Clouds,80,2012-12-06 23:00:00
8:00 PM,79,67,57,29.94,37,East,13.8,,,,Partly Cloudy,90,2012-12-07 00:00:00
8:00 PM,78.8,66.2,65,29.92,-9999.0,North,-9999.0,-,N/A,,Scattered Clouds,0,2012-12-07 00:00:00
9:00 PM,78.8,66.2,65,29.95,6.2,East,13.8,-,N/A,,Scattered Clouds,80,2012-12-07 01:00:00
10:00 PM,78.8,66.2,65,29.95,6.2,ENE,11.5,-,N/A,,Scattered Clouds,70,2012-12-07 02:00:00
11:00 PM,79,67,59,29.95,31,East,12.7,,,,Partly Cloudy,90,2012-12-07 03:00:00
11:00 PM,78.8,68.0,69,29.95,6.2,East,11.5,-,N/A,,Scattered Clouds,80,2012-12-07 03:00:00